Weather in Kolodezhnoe

Russia / Voronezh Oblast     50°37′58″N   39°50′51″E
temp.,
°C
wind,
m/s
gust,
m/s
humid.,
%
clouds,
%
prec.,
mm/h
press.,
hPa
HPBL,
m
31 july, sat
sat3100:00+19sw369055 1.3 1008137
03:00+19wnw229511 3.6 100836
06:00+19wnw12880 0.4 100983
09:00+24nnw23680 0.4 1009529
12:00+28nnw22470 0.0 10101582
15:00+30s12380 0.0 10092087
18:00+29s334211 0.0 1009653
21:00+25wsw115128 0.0 101111
1 august, sun
sun100:00+22n11570 0.0 101111
03:00+21ene11600 0.0 101211
06:00+21e11640 0.0 101311
09:00+28e23450 0.0 1013449
12:00+31ene33331 0.0 10132146
15:00+32ne3335100 0.1 10121396
18:00+25ssw7106371 0.3 1013328
21:00+23se126895 0.3 101211
2 august, mon
mon200:00+22se337027 0.0 101249
03:00+22se22639 0.0 101226
06:00+21e11685 0.0 101215
09:00+28s23458 0.0 1011423
12:00+33ssw34315 0.0 10101131
15:00+35sw572663 0.0 10092827
18:00+33wsw47325 0.0 1008435
21:00+26w611444 0.0 1008228
3 august, tue
tue300:00+23s225432 0.0 100914
03:00+21nnw1171100 0.1 100911
06:00+22ssw126997 0.1 100943
09:00+23wnw347197 0.1 1010303
12:00+28w4652100 0.2 10101092
15:00+28wsw4647100 0.2 1009624
18:00+27nw364726 0.3 1009277
21:00+22nnw612500 0.3 1012440
4 august, wed
wed400:00+19n386495 0.0 1013150
03:00+17nnw33685 0.0 101435
06:00+17n23714 0.0 101572
09:00+23n23515 0.0 1016669
12:00+27nnw243694 0.0 10152652
15:00+25sw234393 0.0 1016194
18:00+25wsw344429 0.0 1015195
21:00+21ne3354100 0.0 101652